Regional Weather Roundup
Issued by NWS

Home | Current Version | Previous Version | Text Only | Print | Product List | Glossary Off
Versions: 1 2 3 4 5 6 7 8 9 10 11 12 13 14 15 16 17 18 19 20 21 22 23 24 25 26 27 28 29 30 31 32 33 34 35 36 37 38 39 40 41 42 43 44 45 46 47 48 49 50

000
ASUS43 KLOT 032100
RWRIL

ILLINOIS REGIONAL WEATHER ROUNDUP
NATIONAL WEATHER SERVICE CHICAGO/ROMEOVILLE IL
300 PM CST TUE MAR 03 2015

NOTE: "FAIR" INDICATES FEW OR NO CLOUDS BELOW 12,000 FEET WITH NO
SIGNIFICANT WEATHER AND/OR OBSTRUCTIONS TO VISIBILITY.

* THESE STATIONS ARE NOT UNDER NWS QUALITY CONTROL. THEY ALSO MAY NOT
  REPORT WEATHER SUCH AS PRECIPITATION OR FOG.

ILZ001-002-007-009-015-016-024-032200-
NORTHWEST ILLINOIS

CITY           SKY/WX    TMP DP  RH WIND       PRES   REMARKS
MOLINE         CLOUDY    35  30  82 W13       29.70R WCI  26
STERLING*        N/A    N/A N/A N/A MISG        N/A
$$

ILZ003-004-008-010-011-017-018-032200-
NORTH CENTRAL ILLINOIS

CITY           SKY/WX    TMP DP  RH WIND       PRES   REMARKS
ROCKFORD       CLOUDY    33  29  85 W10       29.66R WCI  25
FREEPORT*      CLOUDY    32  29  90 W16G23    29.67R WCI  21
DE KALB*       CLOUDY    32  30  94 W13       29.66R FOG     WCI  22
$$

ILZ005-006-012>014-019>023-032200-
NORTHEAST ILLINOIS

CITY           SKY/WX    TMP DP  RH WIND       PRES   REMARKS
CHICAGO-OHARE  CLOUDY    34  30  85 W17G28    29.65R WCI  23
CHICAGO-MIDWAY DRIZZLE   36  34  92 W12G26    29.66R WCI  28
AURORA         CLOUDY    35  30  82 W22G29    29.66R WCI  23
LANSING*       CLOUDY    35  33  93 W17G25    29.66R FOG     WCI  25
WAUKEGAN       CLOUDY    33  30  88 W12G21    29.62R WCI  24
DUPAGE AIRPORT CLOUDY    34  30  85 W22G32    29.65R WCI  22
WHEELING       CLOUDY    34  30  85 W14G25    29.66R WCI  25
NORTHERLY ISL    N/A     36  32  85 W10         N/A  WCI  28
$$

LMZ740>746-032200-
SOUTHERN LAKE MICHIGAN

STATION/POSITION SKY/WX   TEMP    WIND        PRES    VSBY  WAVE
                          AIR SEA DIR/SP/G                  HT/PER
                          (F)     (DEG/KT/KT) (MB)    (MI)  (FT/S)
WAUKEGAN HARBOR            33                   N/A
HARRISON CRIB              35     250/ 19/ 25   N/A
BURNHAM HARBOR             36     280/ 15/ 17   N/A
CALUMET HARBOR             36     230/ 12/ 19 1002.6R
MICHIGAN CITY              35     210/ 20/ 25   N/A
$$

ILZ025>027-034>036-040-047-049-050-058-095>099-032200-
WEST-CENTRAL ILLINOIS

CITY           SKY/WX    TMP DP  RH WIND       PRES   REMARKS
QUINCY         CLOUDY    38  36  92 W9        29.77R FOG     WCI  31
MACOMB*        CLOUDY    36  35  98 W13       29.77R FOG     WCI  27
$$

ILZ028>032-037-038-041>044-048-051>054-059>061-032200-
CENTRAL ILLINOIS

CITY           SKY/WX    TMP DP  RH WIND       PRES   REMARKS
DECATUR        CLOUDY    39  37  92 W14       29.77R FOG     WCI  31
PEORIA         CLOUDY    39  34  82 W15G23    29.74R WCI  31
SPRINGFIELD    CLOUDY    37  35  92 W13       29.78R FOG     WCI  29
TAYLORVILLE    NOT AVBL
$$

ILZ033-039-045-046-055>057-062-063-032200-
EAST-CENTRAL ILLINOIS

CITY           SKY/WX    TMP DP  RH WIND       PRES   REMARKS
CHAMPAIGN      FOG       36  34  92 SW17      29.74F VSB 1   WCI  26
MATTOON        LGT RAIN  40  40 100 SW10      29.76S FOG
$$

ILZ079-100>102-032200-
SOUTHWEST ILLINOIS

CITY           SKY/WX    TMP DP  RH WIND       PRES   REMARKS
CAHOKIA*       CLOUDY    47  45  93 W9        29.80S FOG
$$

ILZ064>066-069>071-074>076-080>082-084>086-088>090-092>094-032200-
SOUTH-CENTRAL ILLINOIS

CITY           SKY/WX    TMP DP  RH WIND       PRES   REMARKS
CARBONDALE     CLOUDY    45  42  89 S7        29.83F
MARION         CLOUDY    46  45  93 SW12      29.84F
MT. VERNON     CLOUDY    43  37  81 SW15      29.82F
$$

ILZ067-068-072-073-078-083-087-091-032200-
SOUTHEAST ILLINOIS

CITY           SKY/WX    TMP DP  RH WIND       PRES   REMARKS
LAWRENCEVILLE  FOG       42  41  96 SW12      29.81F VSB 1/4
$$

ABBREVIATIONS USED IN REMARKS
   TC - TEMPERATURE IN CELSIUS
  WCI - WIND CHILL INDEX
   HX - HEAT INDEX
  VSB - VISIBILITY
$$




USA.gov is the U.S. government's official web portal to all federal, state and local government web resources and services.